User: anonymous   Login
Location: Unspecified
(0.0000°N, 0.0000°E)
Time: 02:53:37
(UTC+01:00)
Language:

Iridium 4 Rocket - Orbit

View from above orbital plane
View from above orbital plane
View from above satellite
View from above satellite

Ground track
Ground track

The orbit data is extracted from the following two-line orbital elements,

1 24797U 97020F   17328.43270779 +.00000139 +00000-0 +23620-4 0  9997
2 24797 086.8932 294.6618 0226694 142.6041 332.0379 14.44018767081031
Epoch (UTC): 24 November 2017 10:23:05
Eccentricity: 0.0226694
inclination: 86.8932°
perigee height: 584 km
apogee height: 907 km
right ascension of ascending node: 294.6618°
argument of perigee: 142.6041°
revolutions per day: 14.44018767
mean anomaly at epoch: 332.0379°
orbit number at epoch: 8103

The dashed part of the orbit path shows where the satellite is in the earth's shadow,  

DLR